Vancouver, British Columbia

12:49 PM PST on December 09, 2016 (GMT -0800)
Vancouver

Weather History for 71892 - October, 2012

Change the Weather History Date:

Wednesday, October 31, 2012

  Actual Average Record
Temperature  
Mean Temperature 54 °F -  
Max Temperature 57 °F 48 °F - ()
Min Temperature 50 °F 37 °F - ()
Degree Days  
Heating Degree Days 12    
Growing Degree Days 4 (Base 50)    
Moisture  
Dew Point 51 °F    
Average Humidity 93    
Maximum Humidity 94    
Minimum Humidity 87    
Precipitation  
Precipitation 0.47 in 0.23 in - ()
Sea Level Pressure  
Sea Level Pressure 29.67 in    
Wind  
Wind Speed 8 mph ()    
Max Wind Speed 18 mph    
Max Gust Speed 18 mph    
Visibility 7.7 miles    
Events Rain    
T = Trace of Precipitation, MM = Missing Value Source: Averaged Metar Reports

Daily Weather History Graph

Daily Weather History Graph

Search for Another Location

Airport or City:

Trip Planner

Search our weather history database for the weather conditions in past years. The results will help you decide how hot, cold, wet, or windy it might be!

Date:

Astronomy

Oct. 31, 2012 Rise Set
Actual Time 7:59 AM PDT 5:52 PM PDT
Civil Twilight 7:26 AM PDT 6:25 PM PDT
Nautical Twilight 6:48 AM PDT 7:02 PM PDT
Astronomical Twilight 6:11 AM PDT 7:39 PM PDT
Moon 6:56 PM PDT (10/31) 9:56 AM PDT (10/31)
Length of Visible Light 10h 58m
Length of Day
9h 52m
Waning Gibbous, 97% of the Moon is Illuminated
Oct 31
Waning Gibbous
Nov 6
Last Quarter
Nov 13
New
Nov 20
First Quarter
Nov 28
Full

Hourly Weather History & Observations

Time (PDT) Temp. Dew Point Humidity Pressure Visibility Wind Dir Wind Speed Gust Speed Precip Events Conditions
12:00 AM 51.8 °F 50.0 °F 94% 29.75 in 8.0 mi East 11.5 mph - N/A Rain Light Rain
1:00 AM 51.8 °F 50.0 °F 94% 29.75 in 8.0 mi East 9.2 mph - N/A Rain Light Rain
2:00 AM 51.8 °F 50.0 °F 94% 29.75 in 6.0 mi East 6.9 mph - N/A Rain Light Rain
3:00 AM 51.8 °F 50.0 °F 94% 29.74 in 6.0 mi East 8.1 mph - N/A Rain Light Rain
4:00 AM 51.8 °F 50.0 °F 94% 29.72 in 6.0 mi East 5.8 mph - N/A Rain Light Rain
5:00 AM 51 °F 49 °F 92% 29.72 in 6 mi ESE 6.9 mph - - Rain Light Rain
5:00 AM 51.8 °F 50.0 °F 94% 29.72 in 6.0 mi ESE 8.1 mph - N/A Rain Light Rain
6:00 AM 51.8 °F 50.0 °F 94% 29.71 in 6.0 mi East 5.8 mph - N/A Rain Light Rain
7:00 AM 51.8 °F 50.0 °F 94% 29.69 in 7.0 mi East 3.5 mph - N/A Rain Light Rain
7:17 AM 51.8 °F - N/A% - 8.0 mi East 5.8 mph - N/A Rain Light Rain
8:00 AM 51.8 °F 50.0 °F 94% 29.68 in 6.0 mi East 4.6 mph - N/A Rain Light Rain
9:00 AM 51.8 °F 50.0 °F 94% 29.67 in 8.0 mi East 4.6 mph - N/A Rain Light Rain
10:00 AM 51.8 °F 50.0 °F 94% 29.65 in 5.0 mi East 10.4 mph - N/A Rain Light Rain
11:00 AM 52 °F 50 °F 92% 29.64 in 5 mi East 5.8 mph - - Rain Light Rain
11:00 AM 51.8 °F 50.0 °F 94% 29.64 in 5.0 mi East 4.6 mph - N/A Rain Light Rain
11:42 AM 53.6 °F - N/A% - 7.0 mi East 10.4 mph - N/A Rain Light Rain
12:00 PM 53.6 °F 51.8 °F 94% 29.63 in 7.0 mi East 13.8 mph - N/A Rain Light Rain
1:00 PM 53.6 °F 51.8 °F 94% 29.61 in 10.0 mi East 18.4 mph - N/A Rain Light Rain
1:41 PM 55.4 °F - N/A% - 15.0 mi East 13.8 mph - N/A   Overcast
2:00 PM 55.4 °F 51.8 °F 88% 29.58 in 15.0 mi East 15.0 mph - N/A   Overcast
3:00 PM 57.2 °F 53.6 °F 88% 29.58 in 15.0 mi East 12.7 mph - N/A Rain Light Rain Showers
4:00 PM 55.4 °F 51.8 °F 88% 29.60 in 15.0 mi ESE 12.7 mph 18.4 mph N/A Rain Light Rain Showers
5:00 PM 55 °F 52 °F 87% 29.61 in 10 mi ESE 10.4 mph - - Rain Light Rain
5:00 PM 55.4 °F 51.8 °F 88% 29.61 in 10.0 mi ESE 9.2 mph - N/A Rain Light Rain
5:23 PM 55.4 °F - N/A% - 6.0 mi SE 9.2 mph - N/A Rain Light Rain
5:40 PM 55.4 °F - N/A% - 6.0 mi SSE 8.1 mph - N/A Rain Light Rain
5:43 PM 53.6 °F - N/A% - 3.0 mi SE 8.1 mph - N/A Rain Light Rain
6:00 PM 53.6 °F 51.8 °F 94% 29.63 in 3.0 mi ESE 8.1 mph - N/A Rain Light Rain
6:03 PM 53.6 °F - N/A% - 3.0 mi ESE 10.4 mph - N/A Rain Light Rain
6:19 PM 53.6 °F - N/A% - 8.0 mi ESE 11.5 mph - N/A   Mostly Cloudy
7:00 PM 53.6 °F 51.8 °F 94% 29.65 in 8.0 mi East 10.4 mph - N/A   Mostly Cloudy
7:09 PM 53.6 °F - N/A% - 8.0 mi ESE 9.2 mph - N/A Rain Light Rain
8:00 PM 53.6 °F 51.8 °F 94% 29.67 in 8.0 mi SE 11.5 mph - N/A Rain Light Rain
9:00 PM 53.6 °F 51.8 °F 94% 29.69 in 8.0 mi SE 8.1 mph - N/A Rain Light Rain
9:39 PM 53.6 °F - N/A% - 8.0 mi East 8.1 mph - N/A   Mostly Cloudy
10:00 PM 53.6 °F 51.8 °F 94% 29.70 in 8.0 mi ESE 6.9 mph - N/A   Mostly Cloudy
11:00 PM 52 °F 50 °F 92% 29.70 in 7 mi East 8.1 mph - -   Partly Cloudy
11:00 PM 51.8 °F 50.0 °F 94% 29.70 in 8.0 mi East 8.1 mph - N/A   Mostly Cloudy